sat.trackr.live / text

‹ back to catalog

STARLINK-30882

NORAD 58379 · 2023-178F

PAYLOAD ACTIVE UNKNOWN

§ Identity

Operator
Country
US
Launch date
2023-11-20
Launch site
AFWTR
Launch vehicle
Mass (kg)
RCS (m²)

Purposes: comms

External: N2YO · Heavens-Above · Gunter

§ Orbital elements

Epoch: 2026-05-24T23:50:37.732128Z

Period
93.85 min
Inclination
53.1613°
Eccentricity
0.0001078
Mean motion
15.34390741 rev/d
Perigee alt
462.0 km
Apogee alt
463.5 km
Semi-major
6,840.9 km
B*
3.3346e-5
RAAN
5.9595°
Arg perigee
95.1083°
Mean anomaly
265.0043°
Rev number
14,158

§ Raw data

STARLINK-308821 58379U 23178F   26144.99349227  .00000750  00000+0  33346-4 0  99992 58379  53.1613   5.9595 0001078  95.1083 265.0043 15.34390741141584

JSON: /api/v1/satellites/58379 · /tle

For live sub-satellite position, see the globe view (requires WebGL).

§ Visibility from observer

Set your observer location to see the next 7 days of passes ≥ 10°. The values pass through the URL so the page stays shareable.

No JS? Fill the form by hand. The geolocation button needs JavaScript.